DLH05E LPPR-EDDF

Flight info

Callsign DLH05E
Flight time N/A
Altitude 34000
Route TURON P600 ASDEB DCT LOTEE DCT AZFIC UN741 MOKOR UN873 OBATO UM163 TSU UN858 OQQAL DCT RANUX/N0450F350 DCT VALEK DCT LIPNI DCT LIMGO Z111 TUTOV/N0406F230 Z111 RAMOB IMCOM1A
Aircraft A321/M-SDE3FGHIRWY/LB1

Departure

Time 2026-05-05 16:10
Airport Francisco de Sá Carneiro Airport (LPPR)

Arrival

Time N/A
Airport Frankfurt Main Airport (EDDF)
Time Latitude Longitude Altitude Speed Heading
2026-05-05 15:33 41.23684 -8.67256 237 ft 0 kts 78°
2026-05-05 15:37 41.23684 -8.67257 237 ft 0 kts 78°
2026-05-05 15:58 41.23681 -8.67285 237 ft 4 kts 86°
2026-05-05 15:58 41.23682 -8.67320 237 ft 4 kts 106°
2026-05-05 15:59 41.23693 -8.67350 237 ft 4 kts 144°
2026-05-05 15:59 41.23705 -8.67358 237 ft 1 kts 160°
2026-05-05 15:59 41.23706 -8.67359 237 ft 0 kts 160°
2026-05-05 16:02 41.23705 -8.67358 237 ft 1 kts 160°
2026-05-05 16:02 41.23673 -8.67344 237 ft 3 kts 163°
2026-05-05 16:02 41.23645 -8.67334 237 ft 6 kts 166°
2026-05-05 16:03 41.23598 -8.67332 237 ft 8 kts 193°
2026-05-05 16:03 41.23581 -8.67386 237 ft 7 kts 292°
2026-05-05 16:03 41.23616 -8.67435 237 ft 8 kts 317°
2026-05-05 16:03 41.23626 -8.67501 237 ft 8 kts 256°
2026-05-05 16:04 41.23614 -8.67582 237 ft 10 kts 259°
2026-05-05 16:04 41.23605 -8.67649 232 ft 2 kts 259°
2026-05-05 16:04 41.23603 -8.67660 233 ft 0 kts 259°
2026-05-05 16:08 41.23603 -8.67662 233 ft 2 kts 259°
2026-05-05 16:08 41.23595 -8.67717 230 ft 9 kts 259°
2026-05-05 16:09 41.23596 -8.67801 232 ft 9 kts 305°
2026-05-05 16:09 41.23652 -8.67823 228 ft 9 kts 348°
2026-05-05 16:09 41.23857 -8.67877 222 ft 63 kts 348°
2026-05-05 16:09 41.24512 -8.68049 207 ft 126 kts 349°
2026-05-05 16:10 41.25542 -8.68318 314 ft 163 kts 342°
2026-05-05 16:10 41.26639 -8.68598 1059 ft 160 kts 346°
2026-05-05 16:10 41.27733 -8.68886 1765 ft 162 kts 345°
2026-05-05 16:10 41.28902 -8.69214 2027 ft 182 kts 343°
2026-05-05 16:11 41.30206 -8.69576 2254 ft 200 kts 344°
2026-05-05 16:11 41.34874 -8.70779 3405 ft 247 kts 353°
2026-05-05 16:12 41.36591 -8.70627 4079 ft 254 kts
2026-05-05 16:12 41.40098 -8.69941 5562 ft 257 kts
2026-05-05 16:13 41.45490 -8.68819 7648 ft 264 kts
2026-05-05 16:13 41.47332 -8.68444 8326 ft 268 kts
2026-05-05 16:13 41.49178 -8.68070 9009 ft 271 kts
2026-05-05 16:14 41.52947 -8.67308 10306 ft 279 kts
2026-05-05 16:14 41.57074 -8.66482 10575 ft 320 kts
2026-05-05 16:15 41.61732 -8.65545 10824 ft 356 kts
2026-05-05 16:15 41.66745 -8.64526 11679 ft 368 kts
2026-05-05 16:16 41.71812 -8.63497 12778 ft 373 kts
2026-05-05 16:16 41.76987 -8.62446 13874 ft 379 kts
2026-05-05 16:17 41.82224 -8.61372 14837 ft 384 kts
2026-05-05 16:17 41.84863 -8.60833 15325 ft 385 kts
2026-05-05 16:18 41.90202 -8.59746 16320 ft 388 kts
2026-05-05 16:18 41.92866 -8.59201 16806 ft 390 kts
2026-05-05 16:18 41.98248 -8.58098 17779 ft 393 kts
2026-05-05 16:19 42.00963 -8.57542 18248 ft 395 kts
2026-05-05 16:19 42.03691 -8.56987 18668 ft 397 kts
2026-05-05 16:19 42.09189 -8.55897 19509 ft 400 kts
2026-05-05 16:20 42.14756 -8.55012 20312 ft 405 kts
2026-05-05 16:20 42.20337 -8.54193 21174 ft 408 kts
2026-05-05 16:21 42.26007 -8.53313 21993 ft 411 kts
2026-05-05 16:22 42.34600 -8.51925 23185 ft 416 kts
2026-05-05 16:22 42.40381 -8.50992 23922 ft 419 kts
2026-05-05 16:23 42.46169 -8.50063 24529 ft 423 kts
2026-05-05 16:23 42.49108 -8.49282 24790 ft 431 kts 10°
2026-05-05 16:23 42.54589 -8.45584 25278 ft 454 kts 30°
2026-05-05 16:24 42.57036 -8.42772 25534 ft 461 kts 34°
2026-05-05 16:24 42.59415 -8.39945 25775 ft 463 kts 34°
2026-05-05 16:24 42.64280 -8.34178 26387 ft 463 kts 34°
2026-05-05 16:25 42.66709 -8.31298 26740 ft 461 kts 34°
2026-05-05 16:25 42.71541 -8.25569 27412 ft 460 kts 34°
2026-05-05 16:25 42.73917 -8.22743 27806 ft 458 kts 34°
2026-05-05 16:26 42.78695 -8.17039 28612 ft 454 kts 34°
2026-05-05 16:26 42.83441 -8.11362 29298 ft 453 kts 34°
2026-05-05 16:27 42.85804 -8.08534 29643 ft 452 kts 33°
2026-05-05 16:27 42.88165 -8.05709 29977 ft 451 kts 33°
2026-05-05 16:27 42.90497 -8.02913 30273 ft 451 kts 33°
2026-05-05 16:27 42.92849 -8.00089 30528 ft 450 kts 33°
2026-05-05 16:28 42.95207 -7.97255 30795 ft 450 kts 33°
2026-05-05 16:28 42.97555 -7.94430 31062 ft 450 kts 34°
2026-05-05 16:28 42.99905 -7.91596 31338 ft 449 kts 34°
2026-05-05 16:28 43.02245 -7.88775 31596 ft 449 kts 34°
2026-05-05 16:29 43.04582 -7.85953 31858 ft 448 kts 34°
2026-05-05 16:29 43.06896 -7.83159 32137 ft 448 kts 34°
2026-05-05 16:29 43.09229 -7.80337 32391 ft 448 kts 34°
2026-05-05 16:29 43.11569 -7.77504 32645 ft 448 kts 34°
2026-05-05 16:30 43.13900 -7.74680 32870 ft 447 kts 34°
2026-05-05 16:30 43.16229 -7.71858 33093 ft 447 kts 34°
2026-05-05 16:30 43.18558 -7.69036 33351 ft 447 kts 34°
2026-05-05 16:30 43.20887 -7.66208 33615 ft 445 kts 34°
2026-05-05 16:31 43.23202 -7.63392 33859 ft 445 kts 35°
2026-05-05 16:31 43.25513 -7.60573 34037 ft 445 kts 35°
2026-05-05 16:31 43.30183 -7.54881 34059 ft 450 kts 36°
2026-05-05 16:32 43.34868 -7.49152 34059 ft 451 kts 36°
2026-05-05 16:32 43.39533 -7.43439 34078 ft 452 kts 36°
2026-05-05 16:33 43.44213 -7.37687 34057 ft 451 kts 37°
2026-05-05 16:33 43.48900 -7.31908 34069 ft 452 kts 37°
2026-05-05 16:34 43.53591 -7.26109 34073 ft 452 kts 37°
2026-05-05 16:34 43.58290 -7.20312 34104 ft 453 kts 37°
2026-05-05 16:35 43.62960 -7.14532 34101 ft 454 kts 38°
2026-05-05 16:35 43.67656 -7.08685 34087 ft 454 kts 38°
2026-05-05 16:36 43.72349 -7.02850 34081 ft 454 kts 38°
2026-05-05 16:36 43.77020 -6.97039 34076 ft 454 kts 38°
2026-05-05 16:37 43.81718 -6.91170 34076 ft 454 kts 38°
2026-05-05 16:37 43.86400 -6.85288 34077 ft 454 kts 38°
2026-05-05 16:38 43.91105 -6.79365 34084 ft 455 kts 38°
2026-05-05 16:38 43.95803 -6.73463 34069 ft 456 kts 38°
2026-05-05 16:39 44.00488 -6.67581 34057 ft 457 kts 38°
2026-05-05 16:39 44.05196 -6.61627 34068 ft 457 kts 39°
2026-05-05 16:40 44.09900 -6.55665 34069 ft 457 kts 39°
2026-05-05 16:40 44.14599 -6.49693 34056 ft 457 kts 39°
2026-05-05 16:41 44.19256 -6.43765 34073 ft 457 kts 39°
2026-05-05 16:41 44.23953 -6.37774 34064 ft 457 kts 39°
2026-05-05 16:42 44.28645 -6.31763 34062 ft 457 kts 40°
2026-05-05 16:42 44.33314 -6.25779 34057 ft 456 kts 40°
2026-05-05 16:43 44.37999 -6.19778 34049 ft 456 kts 40°
2026-05-05 16:43 44.42655 -6.13799 34047 ft 456 kts 40°
2026-05-05 16:44 44.47322 -6.07772 34063 ft 456 kts 41°
2026-05-05 16:44 44.51985 -6.01739 34046 ft 456 kts 41°
2026-05-05 16:45 44.56622 -5.95719 34043 ft 456 kts 41°
2026-05-05 16:45 44.61299 -5.89643 34036 ft 456 kts 41°
2026-05-05 16:46 44.65954 -5.83590 34036 ft 457 kts 41°
2026-05-05 16:46 44.70574 -5.77396 34034 ft 457 kts 42°
2026-05-05 16:47 44.75069 -5.71169 34030 ft 457 kts 43°
2026-05-05 16:47 44.79604 -5.64874 34041 ft 457 kts 43°
2026-05-05 16:48 44.84160 -5.58601 34032 ft 458 kts 43°
2026-05-05 16:48 44.88691 -5.52369 34041 ft 457 kts 43°
2026-05-05 16:49 44.93232 -5.46108 34033 ft 456 kts 43°
2026-05-05 16:49 44.97780 -5.39816 34043 ft 456 kts 43°
2026-05-05 16:50 45.02295 -5.33548 34044 ft 455 kts 43°
2026-05-05 16:50 45.06814 -5.27263 34037 ft 455 kts 43°
2026-05-05 16:51 45.11294 -5.21016 34028 ft 454 kts 43°
2026-05-05 16:51 45.15790 -5.14723 34025 ft 453 kts 43°
2026-05-05 16:52 45.20282 -5.08416 34023 ft 453 kts 43°
2026-05-05 16:52 45.24731 -5.02152 34021 ft 453 kts 43°
2026-05-05 16:53 45.29209 -4.95849 34025 ft 453 kts 43°
2026-05-05 16:53 45.32932 -4.90600 34022 ft 452 kts 43°
2026-05-05 16:54 45.37383 -4.84313 34016 ft 452 kts 44°
2026-05-05 16:54 45.41845 -4.77985 34010 ft 451 kts 44°
2026-05-05 16:55 45.46282 -4.71676 34011 ft 451 kts 44°
2026-05-05 16:55 45.50735 -4.65338 34012 ft 451 kts 44°
2026-05-05 16:56 45.55150 -4.59038 34006 ft 452 kts 44°
2026-05-05 16:56 45.59588 -4.52675 33997 ft 452 kts 44°
2026-05-05 16:57 45.64035 -4.46298 33992 ft 452 kts 44°
2026-05-05 16:57 45.68459 -4.39948 33995 ft 452 kts 44°
2026-05-05 16:58 45.72901 -4.33549 33996 ft 452 kts 45°
2026-05-05 16:58 45.77312 -4.27170 33997 ft 451 kts 45°